Location: Northcutt
(34.7304°N, 84.4305°W)
Time: 17:23:58
(UTC+00:00)

deb Explorer IX - Pass Details

Date: 09 October 2022
Orbit: 533 x 1057 km, 38.8° (Epoch: 30 November)

Event Time Altitude Azimuth Distance (km) Brightness Sun altitude
Exits shadow 10:37:43 21° 277° (W) 1,361 ? -13.3°
Maximum altitude 10:40:34 58° 351° (N) 733 ? -12.7°
Drops below altitude 10° 10:45:26 10° 71° (ENE) 2,155 ? -11.7°
Sets 10:48:05 0° 75° (ENE) 3,169 ? -11.2°
